Lansing, MI

4:22 AM EDT on September 21, 2017 (GMT -0400)
Capital City

Weather History for KLAN - December, 2012

Change the Weather History Date:

Sunday, December 9, 2012

  Actual Average Record
Temperature  
Mean Temperature 31 °F 30 °F  
Max Temperature 34 °F 36 °F 58 °F (1946)
Min Temperature 28 °F 24 °F -17 °F (1864)
Degree Days  
Heating Degree Days 34 35  
Month to date heating degree days 221 300  
Since 1 July heating degree days 1628 1714  
Cooling Degree Days 0 0  
Month to date cooling degree days 0 0  
Year to date cooling degree days 940 625  
Moisture  
Dew Point 29 °F    
Average Humidity 91    
Maximum Humidity 100    
Minimum Humidity 82    
Precipitation  
Precipitation 0.12 in 0.06 in 1.54 in (1879)
Month to date precipitation 0.74 0.61  
Year to date precipitation 27.17 30.51  
Snow  
Snow 0.00 in 0.30 in 5.00 in (1868)
Month to date snowfall 0.5 3.1  
Since 1 July snowfall 1.0 6.9  
Snow Depth 0.00 in    
Sea Level Pressure  
Sea Level Pressure 29.95 in    
Wind  
Wind Speed 8 mph (ENE)    
Max Wind Speed 16 mph    
Max Gust Speed 21 mph    
Visibility 6 miles    
Events Rain , Snow    
T = Trace of Precipitation, MM = Missing Value Source: NWS Daily Summary

Daily Weather History Graph

Daily Weather History Graph

Search for Another Location

Airport or City:

Trip Planner

Search our weather history database for the weather conditions in past years. The results will help you decide how hot, cold, wet, or windy it might be!

Date:

Astronomy

Dec. 09, 2012 Rise Set
Actual Time 7:57 AM EST 5:04 PM EST
Civil Twilight 7:25 AM EST 5:36 PM EST
Nautical Twilight 6:49 AM EST 6:11 PM EST
Astronomical Twilight 6:15 AM EST 6:46 PM EST
Moon 3:25 AM EST (12/9) 2:14 PM EST (12/9)
Length of Visible Light 10h 10m
Length of Day
9h 06m
Waning Crescent, 19% of the Moon is Illuminated
Dec 9
Waning Crescent
Dec 13
New
Dec 20
First Quarter
Dec 28
Full
Jan 4
Last Quarter

Hourly Weather History & Observations

Time (EST) Temp. Windchill Dew Point Humidity Pressure Visibility Wind Dir Wind Speed Gust Speed Precip Events Conditions
12:53 AM 28.9 °F 22.8 °F 26.1 °F 89% 30.20 in 9.0 mi ENE 5.8 mph - N/A   Overcast
1:15 AM 28.4 °F 24.6 °F 26.6 °F 93% 30.17 in 10.0 mi ENE 3.5 mph - N/A   Overcast
1:53 AM 28.9 °F 22.8 °F 27.0 °F 92% 30.20 in 9.0 mi ENE 5.8 mph - N/A   Overcast
2:53 AM 30.0 °F 24.1 °F 27.0 °F 88% 30.19 in 10.0 mi ENE 5.8 mph - N/A   Overcast
3:53 AM 30.0 °F 24.1 °F 27.0 °F 88% 30.18 in 10.0 mi ENE 5.8 mph - N/A   Overcast
4:53 AM 30.0 °F 24.1 °F 27.0 °F 88% 30.19 in 10.0 mi ENE 5.8 mph - N/A   Overcast
5:53 AM 30.0 °F 23.2 °F 27.0 °F 88% 30.19 in 10.0 mi ENE 6.9 mph - N/A   Overcast
6:53 AM 30.9 °F 22.8 °F 27.0 °F 85% 30.18 in 10.0 mi ENE 9.2 mph - N/A   Overcast
7:29 AM 30.2 °F 23.4 °F 26.6 °F 86% 30.14 in 10.0 mi East 6.9 mph - N/A   Overcast
7:53 AM 30.9 °F 23.5 °F 27.0 °F 85% 30.16 in 10.0 mi East 8.1 mph - N/A   Overcast
8:53 AM 32.0 °F 23.0 °F 28.0 °F 85% 30.12 in 10.0 mi East 11.5 mph - 0.00 in Snow Light Snow
9:53 AM 33.1 °F 24.9 °F 28.0 °F 82% 30.10 in 10.0 mi East 10.4 mph - 0.00 in   Overcast
10:53 AM 34.0 °F 24.6 °F 28.9 °F 82% 30.08 in 10.0 mi East 13.8 mph - N/A   Overcast
11:53 AM 34.0 °F 26.0 °F 28.0 °F 79% 30.05 in 10.0 mi East 10.4 mph - N/A   Overcast
12:53 PM 34.0 °F 24.6 °F 28.9 °F 82% 29.99 in 10.0 mi ENE 13.8 mph - N/A   Overcast
1:09 PM 33.8 °F 25.3 °F 28.4 °F 81% 29.94 in 9.0 mi ENE 11.5 mph - 0.00 in Snow Light Snow
1:35 PM 33.8 °F 25.3 °F 30.2 °F 87% 29.92 in 8.0 mi ENE 11.5 mph - 0.00 in Rain Light Rain
1:53 PM 34.0 °F 25.0 °F 30.0 °F 85% 29.93 in 3.0 mi East 12.7 mph - 0.01 in Rain Light Rain
1:55 PM 33.8 °F 25.8 °F 30.2 °F 87% 29.90 in 2.0 mi ENE 10.4 mph - 0.00 in Rain Light Rain
2:53 PM 33.1 °F 24.9 °F 30.9 °F 92% 29.90 in 2.0 mi NE 10.4 mph - 0.04 in Rain Light Rain
3:53 PM 33.1 °F 26.9 °F 30.9 °F 92% 29.88 in 2.5 mi ENE 6.9 mph - 0.05 in Rain Light Rain
4:21 PM 33.8 °F 25.3 °F 30.2 °F 87% 29.83 in 6.0 mi East 11.5 mph - 0.00 in   Light Drizzle
4:38 PM 33.8 °F 25.3 °F 30.2 °F 87% 29.84 in 2.0 mi ENE 11.5 mph - 0.00 in Rain Light Rain
4:53 PM 33.1 °F 24.4 °F 30.0 °F 89% 29.86 in 2.5 mi East 11.5 mph - 0.01 in Rain Light Rain
5:53 PM 32.0 °F 23.0 °F 30.0 °F 92% 29.84 in 2.5 mi ENE 11.5 mph - 0.00 in   Light Drizzle
6:53 PM 32.0 °F 26.4 °F 30.0 °F 92% 29.82 in 2.0 mi NE 5.8 mph - 0.00 in   Light Drizzle
7:02 PM 30.2 °F 22.6 °F 30.2 °F 100% 29.79 in 1.8 mi NE 8.1 mph - 0.00 in   Light Freezing Drizzle
7:20 PM 32.0 °F 24.2 °F 30.2 °F 93% 29.78 in 2.0 mi ENE 9.2 mph - 0.01 in   Light Freezing Drizzle
7:53 PM 30.9 °F 23.5 °F 30.0 °F 96% 29.78 in 2.5 mi ENE 8.1 mph - 0.01 in   Light Freezing Drizzle
8:53 PM 30.9 °F 24.3 °F 30.0 °F 96% 29.75 in 2.0 mi East 6.9 mph - 0.00 in   Light Freezing Drizzle
9:07 PM 30.2 °F 23.4 °F 30.2 °F 100% 29.72 in 2.5 mi ENE 6.9 mph - 0.00 in   Light Freezing Drizzle
9:44 PM 30.2 °F 25.4 °F 30.2 °F 100% 29.70 in 3.0 mi NE 4.6 mph - 0.00 in   Light Freezing Drizzle
9:53 PM 30.9 °F 26.2 °F 30.0 °F 96% 29.73 in 2.5 mi ENE 4.6 mph - 0.00 in   Light Freezing Drizzle
10:53 PM 30.9 °F 27.5 °F 30.0 °F 96% 29.70 in 2.0 mi East 3.5 mph - 0.00 in   Light Freezing Drizzle
11:01 PM 30.2 °F 26.7 °F 30.2 °F 100% 29.68 in 1.8 mi East 3.5 mph - 0.00 in   Light Freezing Drizzle
11:45 PM 30.2 °F - 30.2 °F 100% 29.67 in 1.2 mi Calm Calm - 0.00 in   Light Freezing Drizzle
11:53 PM 30.9 °F - 28.9 °F 92% 29.70 in 1.2 mi Calm Calm - 0.00 in   Light Freezing Drizzle